Location: Bishausen
(51.6334°N, 9.9631°E)
Time: 17:21:29
(UTC+00:00)

Cosmos 1741 Rocket - Pass Details

Date: 23 May 2024
Orbit: 758 x 781 km, 74.0° (Epoch: 24 June)

Event Time Altitude Azimuth Distance (km) Brightness Sun altitude
Exits shadow 01:51:25 13° 213° (SSW) 2,068 5.6 -10.2°
Maximum altitude 01:56:02 72° 297° (WNW) 812 4.1 -9.8°
Drops below altitude 10° 02:01:18 10° 22° (NNE) 2,326 7.9 -9.3°
Sets 02:03:43 0° 25° (NNE) 3,261 9.1 -9.0°
